Tracking 19219 objects as of 20-Jul-2018
HD Live streaming from Space Station
objects crossing your sky now

FENGYUN 1C DEB

Track FENGYUN 1C DEB now!
10-day predictions


NORAD ID: 31416
Int'l Code: 1999-025BTC
Perigee: 679.0 km
Apogee: 883.3 km
Inclination: 99.0 °
Period: 100.3 minutes
Semi major axis: 7152 km
RCS: 0.0132 m2 (small)
Launch date: May 10, 1999
Source: People's Republic of China (PRC)
Launch site: Taiyaun Space Center, China (TSC)

Note: This is SATELLITE DEBRIS
aabbcc
Your satellite tracking list
Your tracking list is empty




NASA's NSSDC Master Catalog

Two Line Element Set (TLE):
1 31416U 99025BTC 18200.48054692 +.00000084 +00000-0 +42881-4 0  9998
2 31416 099.0337 078.0270 0142842 259.1912 224.3829 14.35315743267014
Source of the keplerian elements: AFSPC